This demonstration page uses our WeatherBlox Daily Observations layout. Learn more.

Left ArrowRight Arrow

44.8408, -93.29828

Hourly Observations for August 25, 2017

Temp ( °F °C ) Dew Point ( °F °C ) Humidity (%) Winds ( mph kmh ) Pressure ( in mb ) Visibility ( mi km ) Precip ( " mm )
12:53 am 00:53 Mostly Cloudy 63 17.2 51 10.6 65 65 ESE 13 20 30.13 1020 10 16 0.00 0.00
1:53 am 01:53 Partly Cloudy 62 16.7 50 10 65 65 ESE 12 19 30.12 1020 10 16 0.00 0.00
2:53 am 02:53 Mostly Cloudy 63 17.2 50 10 63 63 SE 10 17 30.12 1020 10 16 0.00 0.00
3:53 am 03:53 Mostly Cloudy 62 16.7 51 10.6 67 67 SE 10 17 30.13 1020 10 16 0.00 0.00
4:53 am 04:53 Cloudy 62 16.7 52 11.1 70 70 SE 14 22 30.13 1020 10 16 0.00 0.00
5:53 am 05:53 Cloudy with Light Rain 60 15.6 54 12.2 80 80 SSE 12 19 30.15 1021 10 16 0.00 0.03
6:53 am 06:53 Cloudy with Light Rain 58 14.4 57 13.9 97 97 ESE 14 22 30.16 1021 3 5 0.18 4.57
7:53 am 07:53 Cloudy with Light Rain 58 14.4 57 13.9 97 97 ESE 15 24 30.16 1022 10 16 0.00 0.03
8:53 am 08:53 Cloudy 59 15 57 13.9 93 93 SE 15 24 30.16 1022 10 16 0.00 0.03
9:38 am 09:38 Mostly Cloudy 61 16.1 57 13.9 87 87 SE 16 26 30.15 1021 10 16 0.00 0.00
9:53 am 09:53 Cloudy 61 16.1 57 13.9 87 87 SE 18 30 30.17 1022 10 16 0.00 0.00
10:53 am 10:53 Cloudy 63 17.2 58 14.4 84 84 SE 15 24 30.17 1022 10 16 0.00 0.00
11:11 am 11:11 Cloudy 64 17.8 59 15 84 84 ESE 17 28 30.15 1021 10 16 0.00 0.00
11:53 am 11:53 Mostly Cloudy 66 18.9 59 15 78 78 ESE 15 24 30.16 1021 10 16 0.00 0.00
12:53 pm 12:53 Cloudy 69 20.6 59 15 70 70 SE 17 28 30.15 1021 10 16 0.00 0.00
1:53 pm 13:53 Cloudy 70 21.1 59 15 68 68 SE 14 22 30.14 1021 10 16 0.00 0.00
2:09 pm 14:09 Cloudy 71 21.7 60 15.6 68 68 SE 18 30 30.12 1020 10 16 0.00 0.00
2:19 pm 14:19 Mostly Cloudy 71 21.7 60 15.6 68 68 SE 15 24 30.12 1020 10 16 0.00 0.00
2:53 pm 14:53 Cloudy 70 21.1 60 15.6 71 71 SSE 14 22 30.13 1020 10 16 0.00 0.00
3:53 pm 15:53 Cloudy 70 21.1 60 15.6 71 71 SE 14 22 30.13 1020 10 16 0.00 0.00
4:53 pm 16:53 Cloudy 70 21.1 60 15.6 71 71 SE 17 28 30.14 1021 10 16 0.01 0.25
5:53 pm 17:53 Cloudy 70 21.1 60 15.6 71 71 ESE 17 28 30.13 1020 10 16 0.00 0.00
6:53 pm 18:53 Cloudy 68 20 60 15.6 76 76 ESE 17 28 30.11 1020 10 16 0.00 0.00
7:53 pm 19:53 Cloudy 67 19.4 60 15.6 79 79 SE 14 22 30.10 1019 10 16 0.00 0.00
8:53 pm 20:53 Mostly Cloudy 67 19.4 59 15 76 76 SE 15 24 30.10 1019 10 16 0.00 0.00
9:53 pm 21:53 Cloudy with Nearby Thunderstorms 66 18.9 59 15 78 78 SE 16 26 30.11 1020 10 16 0.00 0.03
10:36 pm 22:36 Cloudy with Thunderstorms 63 17.2 60 15.6 90 90 SSE 9 15 30.12 1020 6 10 0.01 0.25
10:53 pm 22:53 Cloudy with Thunderstorms 63 17.2 61 16.1 93 93 SE 10 17 30.14 1021 7 11 0.02 0.51
11:06 pm 23:06 Cloudy with Rain 63 17.2 61 16.1 93 93 ESE 13 20 30.12 1020 5 8 0.03 0.76
11:53 pm 23:53 Cloudy with Rain 62 16.7 61 16.1 96 96 SSE 9 15 30.14 1021 4 6 0.11 2.79

Powered by AerisWeather